CW9114 Weather Reports


Display with metric or nautical units.
time (UTC)temp
F
wind
direction
speed
MPH
gust
MPH
rain 1hr
in
rain 24hr
in
rain mn
in
humidity
%
barometer
mb
20260901140028 67 241 0.0 1.0 0.00 0.00 0.00 97 1012.8
20260901134532 66 242 0.0 0.0 0.00 0.00 0.00 97 1013.0
20260901133018 64 360 0.0 0.0 0.00 0.00 0.00 97 1012.9
20260901131523 63 360 0.0 0.0 0.00 0.00 0.00 97 1012.9
20260901130024 62 360 0.0 0.0 0.00 0.00 0.00 97 1012.9
20260901124530 61 360 0.0 0.0 0.00 0.00 0.00 97 1012.9
20260901123037 60 360 0.0 0.0 0.00 0.00 0.00 97 1012.9
20260901121519 60 360 0.0 0.0 0.00 0.00 0.00 96 1013.0
20260901120023 60 360 0.0 0.0 0.00 0.00 0.00 96 1012.9
20260901114527 60 360 0.0 0.0 0.00 0.00 0.00 96 1012.8
20260901113034 60 360 0.0 0.0 0.00 0.00 0.00 96 1012.8
20260901111534 60 360 0.0 0.0 0.00 0.00 0.00 96 1012.7
20260901110017 60 360 0.0 0.0 0.00 0.00 0.00 96 1012.5
20260901104525 60 360 0.0 0.0 0.00 0.00 0.00 96 1012.5
20260901103027 61 360 0.0 0.0 0.00 0.00 0.00 96 1012.4
20260901101533 61 360 0.0 0.0 0.00 0.00 0.00 96 1012.4
20260901100034 61 360 0.0 0.0 0.00 0.00 0.00 96 1012.5
20260901094523 61 360 0.0 0.0 0.00 0.00 0.00 96 1012.5
20260901093034 61 360 0.0 1.0 0.00 0.00 0.00 96 1012.6
20260901091533 61 360 0.0 1.0 0.00 0.00 0.00 96 1012.5
20260901090017 62 360 0.0 1.0 0.00 0.01 0.00 96 1012.4
20260901084517 62 360 0.0 0.0 0.00 0.02 0.00 96 1012.4
20260901083026 62 360 0.0 0.0 0.00 0.02 0.00 96 1012.3
20260901081506 62 360 0.0 0.0 0.00 0.02 0.00 96 1012.4
20260901080008 62 360 0.0 0.0 0.00 0.02 0.00 96 1012.4
20260901074516 63 360 0.0 0.0 0.00 0.02 0.00 96 1012.4
20260901073033 63 360 0.0 0.0 0.00 0.02 0.00 96 1012.3
20260901071530 64 360 0.0 2.0 0.00 0.02 0.00 96 1012.1
20260901070006 64 360 0.0 0.0 0.00 0.02 0.00 96 1012.3
20260901064515 64 360 0.0 0.0 0.00 0.02 0.00 96 1012.2
20260901063022 64 360 0.0 0.0 0.00 0.02 0.00 95 1012.4
20260901061528 64 360 0.0 0.0 0.00 0.02 0.00 95 1012.6
20260901060039 65 360 0.0 0.0 0.00 0.02 0.00 95 1012.7
20260901054531 66 360 0.0 0.0 0.00 0.02 0.00 96 1012.7
20260901053014 67 360 0.0 0.0 0.00 0.02 0.00 96 1012.7
20260901051521 68 360 0.0 0.0 0.00 0.02 0.00 96 1012.5
20260901050030 67 360 0.0 0.0 0.00 0.02 0.00 96 1012.4
20260901044507 67 360 0.0 0.0 0.00 0.02 0.00 96 1012.3
20260901043009 66 360 0.0 0.0 0.00 0.02 0.00 96 1012.2
20260901041516 66 360 0.0 1.0 0.00 0.02 0.00 96 1012.1
20260901040025 65 360 0.0 0.0 0.00 0.02 0.00 95 1012.0
20260901034532 66 360 0.0 0.0 0.00 0.02 0.02 95 1011.8
20260901033006 66 360 0.0 0.0 0.00 0.02 0.02 95 1011.8
20260901031514 66 360 0.0 0.0 0.00 0.02 0.02 94 1012.0
20260901030018 67 360 0.0 0.0 0.00 0.02 0.02 95 1011.9
20260901024527 67 360 0.0 0.0 0.00 0.02 0.02 94 1011.9
20260901023030 67 360 0.0 0.0 0.00 0.02 0.02 94 1011.9
20260901021535 68 360 0.0 0.0 0.00 0.02 0.02 94 1012.0
20260901020013 68 360 0.0 0.0 0.00 0.02 0.02 94 1012.0
20260901014520 69 360 0.0 0.0 0.00 0.02 0.02 94 1012.0
20260901013026 69 360 0.0 0.0 0.00 0.02 0.02 94 1012.0
20260901011537 69 360 0.0 0.0 0.00 0.02 0.02 93 1011.9
20260901010019 70 360 0.0 0.0 0.00 0.02 0.02 92 1011.6
20260901004527 70 360 0.0 0.0 0.00 0.02 0.02 92 1011.5
20260901003025 71 360 0.0 0.0 0.00 0.02 0.02 92 1011.2
20260901001505 71 360 0.0 0.0 0.00 0.02 0.02 92 1011.3
20260901000011 71 360 0.0 0.0 0.00 0.02 0.02 91 1011.2
20260831234515 72 360 0.0 0.0 0.00 0.02 0.02 91 1011.2
20260831233036 72 360 0.0 0.0 0.00 0.02 0.02 91 1011.1
20260831231535 71 360 0.0 0.0 0.00 0.02 0.02 91 1011.0
20260831230010 72 360 0.0 0.0 0.00 0.02 0.02 91 1010.9
20260831224512 72 360 0.0 0.0 0.00 0.02 0.02 90 1011.0
20260831223018 72 360 0.0 0.0 0.00 0.02 0.02 89 1011.1
20260831221533 72 360 0.0 1.0 0.00 0.02 0.02 88 1011.1
20260831220027 73 360 0.0 1.0 0.00 0.02 0.02 88 1010.9
20260831214507 73 360 0.0 1.0 0.00 0.02 0.02 87 1010.8
20260831213016 73 79 0.0 1.0 0.00 0.02 0.02 86 1010.6
20260831211518 74 15 0.0 4.0 0.00 0.02 0.02 86 1010.3
20260831210027 74 349 0.0 3.0 0.00 0.02 0.02 85 1010.2
20260831204531 74 23 0.0 4.0 0.00 0.02 0.02 86 1010.3
20260831203008 74 45 0.0 2.0 0.00 0.02 0.02 87 1010.1
20260831201523 75 45 0.0 5.0 0.00 0.02 0.02 86 1010.2
20260831200026 75 63 0.0 1.0 0.00 0.02 0.02 86 1010.4
20260831194527 76 63 0.0 1.0 0.00 0.02 0.02 86 1010.4
20260831193036 76 63 0.0 2.0 0.00 0.02 0.02 86 1010.6
20260831191516 76 63 0.0 4.0 0.00 0.02 0.02 85 1010.4
20260831190018 76 68 0.0 3.0 0.00 0.02 0.02 85 1010.4
20260831184526 76 38 1.0 5.0 0.00 0.02 0.02 85 1010.7
20260831183032 76 57 0.0 4.0 0.00 0.02 0.02 85 1010.8
20260831181532 77 61 0.0 4.0 0.00 0.02 0.02 84 1010.9
20260831180019 77 27 0.0 3.0 0.00 0.02 0.02 85 1010.7
20260831174521 77 155 0.0 4.0 0.00 0.02 0.02 85 1010.9
20260831173028 77 179 0.0 4.0 0.00 0.02 0.02 84 1010.8
20260831171514 77 153 0.0 6.0 0.00 0.02 0.02 86 1011.0
20260831170023 76 198 0.0 3.0 0.00 0.02 0.02 87 1011.1
20260831164521 75 183 0.0 2.0 0.00 0.02 0.02 89 1011.3
20260831163022 74 191 0.0 3.0 0.00 0.02 0.02 91 1011.5
20260831161532 73 181 0.0 2.0 0.00 0.02 0.02 93 1011.1
20260831160013 72 39 1.0 4.0 0.00 0.02 0.02 96 1011.0
20260831154539 70 93 0.0 2.0 0.00 0.02 0.02 97 1010.9
20260831153022 69 360 0.0 1.0 0.00 0.02 0.02 97 1011.6
20260831151527 68 161 0.0 2.0 0.00 0.02 0.02 97 1011.5
20260831150005 67 191 0.0 1.0 0.00 0.02 0.02 97 1011.6
20260831144509 67 183 0.0 2.0 0.00 0.02 0.02 97 1011.6
20260831143015 66 190 0.0 3.0 0.00 0.02 0.02 97 1011.6
20260831141523 66 186 0.0 1.0 0.00 0.02 0.02 97 1011.9